Howell, MI

10:51 PM EDT on May 22, 2017 (GMT -0400)
Livingston County

Weather History for KOZW - January, 2011

Change the Weather History Date:

Saturday, January 22, 2011

  Actual Average Record
Temperature  
Mean Temperature 10 °F -  
Max Temperature 17 °F 28 °F 53 °F (2002)
Min Temperature 3 °F 14 °F -12 °F (2014)
Degree Days  
Heating Degree Days 55    
Moisture  
Dew Point 6 °F    
Average Humidity 78    
Maximum Humidity 86    
Minimum Humidity 73    
Precipitation  
Precipitation 0.00 in - - ()
Sea Level Pressure  
Sea Level Pressure 29.84 in    
Wind  
Wind Speed 5 mph (SSW)    
Max Wind Speed 14 mph    
Max Gust Speed 20 mph    
Visibility 6 miles    
Events Snow    
Averages and records for this station are not official NWS values.
T = Trace of Precipitation, MM = Missing Value Source: NWS Daily Summary

Daily Weather History Graph

Daily Weather History Graph

Search for Another Location

Airport or City:

Trip Planner

Search our weather history database for the weather conditions in past years. The results will help you decide how hot, cold, wet, or windy it might be!

Date:

Astronomy

Jan. 22, 2011 Rise Set
Actual Time 7:59 AM EST 5:36 PM EST
Civil Twilight 7:28 AM EST 6:06 PM EST
Nautical Twilight 6:54 AM EST 6:41 PM EST
Astronomical Twilight 6:20 AM EST 7:14 PM EST
Moon 9:30 PM EST (1/22) 9:19 AM EST (1/22)
Length of Visible Light 10h 38m
Length of Day
9h 36m
Waning Gibbous, 89% of the Moon is Illuminated
Jan 22
Waning Gibbous
Jan 26
Last Quarter
Feb 2
New
Feb 11
First Quarter
Feb 18
Full

Hourly Weather History & Observations

Time (EST) Temp. Windchill Dew Point Humidity Pressure Visibility Wind Dir Wind Speed Gust Speed Precip Events Conditions
12:15 AM 3.2 °F - -0.4 °F 85% 29.96 in 10.0 mi Calm Calm - N/A   Overcast
12:35 AM 5.0 °F - -0.4 °F 78% 29.95 in 10.0 mi Calm Calm - N/A   Overcast
12:54 AM 5.0 °F -2.1 °F 1.4 °F 85% 29.94 in 10.0 mi SSW 3.5 mph - N/A   Overcast
1:15 AM 6.8 °F -0.1 °F 1.4 °F 79% 29.94 in 10.0 mi SSW 3.5 mph - N/A   Overcast
1:34 AM 6.8 °F - 1.4 °F 79% 29.93 in 10.0 mi Calm Calm - N/A Snow Light Snow
1:55 AM 8.6 °F - 1.4 °F 73% 29.92 in 10.0 mi Calm Calm - N/A Snow Light Snow
2:14 AM 5.0 °F - 1.4 °F 85% 29.92 in 10.0 mi Calm Calm - N/A Snow Light Snow
2:35 AM 5.0 °F - 1.4 °F 85% 29.92 in 10.0 mi Calm Calm - N/A   Overcast
2:55 AM 8.6 °F - 3.2 °F 79% 29.92 in 10.0 mi Calm Calm - N/A   Overcast
3:15 AM 8.6 °F 2.0 °F 3.2 °F 79% 29.91 in 10.0 mi South 3.5 mph - N/A   Mostly Cloudy
3:35 AM 8.6 °F 2.0 °F 3.2 °F 79% 29.90 in 10.0 mi South 3.5 mph - N/A   Mostly Cloudy
3:55 AM 8.6 °F - 3.2 °F 79% 29.90 in 10.0 mi Calm Calm - N/A   Overcast
4:25 AM 8.6 °F 2.0 °F 3.2 °F 79% 29.89 in 10.0 mi SSW 3.5 mph - N/A   Overcast
4:55 AM 10.4 °F 0.8 °F 3.2 °F 73% 29.89 in 10.0 mi South 5.8 mph - N/A   Overcast
5:14 AM 10.4 °F -0.4 °F 5.0 °F 79% 29.88 in 10.0 mi South 6.9 mph - N/A   Overcast
5:35 AM 10.4 °F -0.4 °F 5.0 °F 79% 29.88 in 10.0 mi South 6.9 mph - N/A   Overcast
5:55 AM 10.4 °F -0.4 °F 5.0 °F 79% 29.88 in 10.0 mi South 6.9 mph - N/A   Overcast
6:14 AM 10.4 °F -1.5 °F 5.0 °F 79% 29.87 in 10.0 mi South 8.1 mph - N/A   Overcast
6:35 AM 10.4 °F 0.8 °F 5.0 °F 79% 29.87 in 10.0 mi South 5.8 mph - N/A   Overcast
6:55 AM 10.4 °F -0.4 °F 5.0 °F 79% 29.87 in 10.0 mi SSW 6.9 mph - N/A   Overcast
7:14 AM 10.4 °F -0.4 °F 5.0 °F 79% 29.87 in 10.0 mi SSW 6.9 mph - N/A   Overcast
7:35 AM 10.4 °F -1.5 °F 5.0 °F 79% 29.87 in 7.0 mi SSW 8.1 mph - N/A   Overcast
7:55 AM 10.4 °F -1.5 °F 5.0 °F 79% 29.87 in 5.0 mi SSW 8.1 mph - N/A Snow Light Snow
8:14 AM 10.4 °F -1.5 °F 5.0 °F 79% 29.86 in 2.0 mi South 8.1 mph - N/A Snow Light Snow
8:35 AM 10.4 °F -3.3 °F 5.0 °F 79% 29.85 in 3.0 mi South 10.4 mph - N/A Snow Light Snow
8:55 AM 10.4 °F -2.4 °F 5.0 °F 79% 29.85 in 4.0 mi South 9.2 mph - N/A Snow Light Snow
9:14 AM 10.4 °F -2.4 °F 3.2 °F 73% 29.85 in 4.0 mi South 9.2 mph - N/A   Haze
9:35 AM 10.4 °F -4.8 °F 3.2 °F 73% 29.85 in 2.0 mi South 12.7 mph - N/A Snow Light Snow
9:54 AM 10.4 °F -1.5 °F 5.0 °F 79% 29.84 in 1.5 mi South 8.1 mph - N/A Snow Light Snow
10:15 AM 10.4 °F -2.4 °F 5.0 °F 79% 29.83 in 2.0 mi South 9.2 mph - N/A Snow Light Snow
10:35 AM 10.4 °F -2.4 °F 5.0 °F 79% 29.83 in 1.0 mi SSW 9.2 mph - N/A Snow Light Snow
10:54 AM 10.4 °F -4.1 °F 5.0 °F 79% 29.83 in 1.5 mi South 11.5 mph - N/A Snow Light Snow
11:15 AM 12.2 °F -1.0 °F 5.0 °F 73% 29.82 in 2.0 mi SSW 10.4 mph - N/A Snow Light Snow
11:35 AM 12.2 °F -1.8 °F 5.0 °F 73% 29.81 in 2.0 mi SSW 11.5 mph - N/A Snow Light Snow
11:54 AM 12.2 °F -0.2 °F 6.8 °F 79% 29.80 in 1.2 mi SSW 9.2 mph - N/A Snow Light Snow
12:15 PM 12.2 °F -0.2 °F 6.8 °F 79% 29.80 in 1.2 mi South 9.2 mph - N/A Snow Light Snow
12:34 PM 12.2 °F -1.0 °F 8.6 °F 85% 29.78 in 2.0 mi SW 10.4 mph 16.1 mph N/A Snow Light Snow
12:54 PM 14.0 °F 2.0 °F 8.6 °F 79% 29.77 in 1.5 mi SSW 9.2 mph - N/A Snow Light Snow
1:15 PM 14.0 °F -0.2 °F 8.6 °F 79% 29.76 in 2.0 mi SSW 12.7 mph - N/A Snow Light Snow
1:35 PM 14.0 °F -0.8 °F 8.6 °F 79% 29.76 in 2.5 mi SSW 13.8 mph 19.6 mph N/A Snow Light Snow
1:54 PM 14.0 °F 0.5 °F 8.6 °F 79% 29.76 in 2.5 mi SSW 11.5 mph - N/A Snow Light Snow
2:15 PM 15.8 °F 2.7 °F 10.4 °F 79% 29.75 in 3.0 mi SW 11.5 mph 16.1 mph N/A Snow Light Snow
2:35 PM 15.8 °F 3.4 °F 10.4 °F 79% 29.75 in 4.0 mi SW 10.4 mph 16.1 mph N/A Snow Light Snow
2:54 PM 15.8 °F 2.7 °F 10.4 °F 79% 29.75 in 4.0 mi SW 11.5 mph - N/A Snow Light Snow
3:15 PM 17.6 °F 6.4 °F 10.4 °F 73% 29.75 in 4.0 mi SW 9.2 mph - N/A Snow Light Snow
3:34 PM 17.6 °F 7.3 °F 10.4 °F 73% 29.76 in 4.0 mi WSW 8.1 mph - N/A Snow Light Snow
3:55 PM 17.6 °F 5.0 °F 10.4 °F 73% 29.77 in 4.0 mi SW 11.5 mph - N/A Snow Light Snow
4:15 PM 17.6 °F 6.4 °F 10.4 °F 73% 29.77 in 7.0 mi SW 9.2 mph - N/A   Mostly Cloudy
4:34 PM 15.8 °F 4.2 °F 10.4 °F 79% 29.77 in 10.0 mi WSW 9.2 mph 17.3 mph N/A   Overcast
4:55 PM 15.8 °F 5.1 °F 10.4 °F 79% 29.78 in 5.0 mi WSW 8.1 mph - N/A Snow Light Snow
5:14 PM 17.6 °F 5.7 °F 10.4 °F 73% 29.78 in 5.0 mi WSW 10.4 mph - N/A Snow Light Snow
5:35 PM 15.8 °F 4.2 °F 10.4 °F 79% 29.80 in 10.0 mi WSW 9.2 mph - N/A   Overcast
5:55 PM 15.8 °F 6.1 °F 10.4 °F 79% 29.81 in 5.0 mi WSW 6.9 mph - N/A Snow Light Snow
6:14 PM 15.8 °F 5.1 °F 12.2 °F 86% 29.81 in 3.0 mi WSW 8.1 mph - N/A Snow Light Snow
6:35 PM 17.6 °F 5.0 °F 12.2 °F 79% 29.83 in 1.2 mi West 11.5 mph - N/A Snow Light Snow
6:55 PM 17.6 °F 6.4 °F 12.2 °F 79% 29.83 in 4.0 mi West 9.2 mph - N/A Snow Light Snow
7:14 PM 15.8 °F 3.4 °F 10.4 °F 79% 29.85 in 7.0 mi WNW 10.4 mph - N/A Snow Light Snow
7:35 PM 14.0 °F -0.2 °F 8.6 °F 79% 29.85 in 7.0 mi NW 12.7 mph 19.6 mph N/A Snow Light Snow
7:55 PM 14.0 °F -0.2 °F 6.8 °F 73% 29.86 in 10.0 mi West 12.7 mph 18.4 mph N/A   Scattered Clouds
8:14 PM 14.0 °F -0.2 °F 5.0 °F 67% 29.87 in 10.0 mi WNW 12.7 mph 18.4 mph N/A   Mostly Cloudy
8:35 PM 12.2 °F -0.2 °F 3.2 °F 67% 29.88 in 10.0 mi WNW 9.2 mph - N/A   Scattered Clouds
9:14 PM 10.4 °F -2.4 °F 3.2 °F 73% 29.89 in 10.0 mi West 9.2 mph - N/A   Mostly Cloudy
9:35 PM 10.4 °F -1.5 °F 1.4 °F 67% 29.90 in 10.0 mi West 8.1 mph - N/A   Scattered Clouds
9:54 PM 10.4 °F -2.4 °F 3.2 °F 73% 29.91 in 10.0 mi West 9.2 mph - N/A   Mostly Cloudy
10:15 PM 10.4 °F -1.5 °F 3.2 °F 73% 29.92 in 10.0 mi West 8.1 mph - N/A   Overcast
10:35 PM 10.4 °F -2.4 °F 3.2 °F 73% 29.93 in 10.0 mi WNW 9.2 mph - N/A   Overcast
10:54 PM 10.4 °F -4.1 °F 3.2 °F 73% 29.93 in 10.0 mi WNW 11.5 mph - N/A   Overcast
11:15 PM 8.6 °F -3.7 °F 3.2 °F 79% 29.94 in 10.0 mi WNW 8.1 mph - N/A   Scattered Clouds
11:35 PM 8.6 °F -2.6 °F 1.4 °F 73% 29.96 in 10.0 mi WNW 6.9 mph - N/A   Clear
11:55 PM 6.8 °F -3.5 °F 1.4 °F 79% 29.97 in 10.0 mi WNW 5.8 mph - N/A   Clear